Location: Arcones
(41.1182°N, 3.7238°W)
Time: 21:30:41
(UTC+00:00)

YAOGAN 1 - Pass Details

Date: 11 December 2025
Orbit: 605 x 607 km, 97.8° (Epoch: 12 January)

Event Time Altitude Azimuth Distance (km) Brightness Sun altitude
Rises 18:28:15 0° 158° (SSE) 2,851 5.9 -18.5°
Reaches altitude 10° 18:30:26 10° 155° (SSE) 1,951 5.0 -18.9°
Maximum altitude 18:34:37 62° 75° (ENE) 685 2.4 -19.7°
Drops below altitude 10° 18:38:50 10° 354° (N) 1,966 5.0 -20.5°
Sets 18:41:02 0° 352° (N) 2,874 5.9 -20.9°
